Simultaneous Nadir Overpasses (SNOs) Predictions

Prediction of SNOs between FY3D and AQUA Satellite Orbit:

Table of predicted SNOs for the next 14.0 days since TLE Epoch: 2/19/2022
Index Date (FY3D) Time (FY3D) Lat,Lon (FY3D) SZA (FY3D ) Date (AQUA) Time (AQUA) Lat,Lon (AQUA) SZA (AQUA ) Distance(km) Time Diff (sec)
1 02/21/2022 02:37:32 74.11, 134.22 84.85 02/21/2022 02:38:32 74.12, 134.16 84.85 2.06 60
2 02/21/2022 03:27:50 -72.79, -55.43 96.60 02/21/2022 03:27:32 -72.79, -55.39 96.60 1.30 18
3 02/23/2022 18:04:42 -74.22, 82.17 96.00 02/23/2022 18:05:30 -74.21, 82.20 96.02 1.04 48
4 02/23/2022 18:54:57 72.63,-106.86 82.27 02/23/2022 18:54:27 72.62,-106.81 82.26 1.95 30
5 02/26/2022 09:31:46 73.92, 31.15 82.69 02/26/2022 09:32:22 73.92, 31.15 82.68 0.22 36
6 02/26/2022 10:21:52 -71.99,-157.35 99.40 02/26/2022 10:21:11 -72.00,-157.39 99.39 1.55 41
7 03/01/2022 00:58:51 -73.84, -20.42 98.40 03/01/2022 00:59:15 -73.84, -20.40 98.41 0.70 24
8 03/01/2022 01:49:03 72.08, 150.70 79.70 03/01/2022 01:48:09 72.08, 150.74 79.70 1.32 54
9 03/03/2022 16:25:59 73.74, -71.95 80.48 03/03/2022 16:26:10 73.74, -71.89 80.47 1.78 11



Historial Predications of SNOs between FY3D and AQUA
